Content
SEND FEEDBACK

Daily
Averages
Monthly
Summary
United States of America

PAHRUMP, NEVADA


Home > North America > United States > Nevada
Elevation: 2816 feet     Latitude: 36 15N     Longitude: 115 59W

WEATHER
 
SELECT A DAY
Number of Records: 172,642;   Date Range: 1/2/95 - 7/23/14
 
SHARE

PRINT THIS DATA

[ ← Previous Day ]
WEATHER ALMANAC - JANUARY 23, 2013
[ Next Day → ]
[ °C ]   °F
Weather ElementAverageHighLow
Temperature49.5 °F63.7 °F (2:58 pm)36.3 °F (3:58 am)
Dewpoint17.6 °F21.6 °F (7:58 pm)15.1 °F (2:58 am)
Humidity30 %44 % (6:58 am)15 % (2:58 pm)
Barometer30.19 in30.28 in (9:58 am)30.13 in (2:58 pm)
Wind Speed3.2 mph12.7 mph (11:58 am)
Weather ElementAverage
Visibility10 mi
Wind DirectionNE (41.7 °)

Weather ElementTotal
Precipitation---
Heating Degree Days15 (Base 65)
Averaged from 23 records on January 23, 2013
WEATHER CONDITIONS BREAKOUT
WIND DIRECTION BREAKOUT
WEATHER BY HOUR - JANUARY 23, 2013
[ °C ]   °F
Local TimeTemperatureDewpointHumidityBarometerVisibilityWind DirectionWind SpeedGust SpeedPrecipitationEventsConditions
1:58 AM36.7 °F15.4 °F42 %30.23 in10.0 miEast (80°)3.5 mphClear
2:58 AM38.5 °F15.1 °F39 %30.20 in10.0 miNNW (330°)4.6 mphClear
3:58 AM36.3 °F15.1 °F42 %30.22 in10.0 miSE (140°)3.5 mphClear
4:58 AM36.9 °F15.8 °F42 %30.21 in10.0 miNNE (30°)2.3 mphClear
5:58 AM37.8 °F16.2 °F42 %30.24 in10.0 miCalmClear
6:58 AM36.9 °F16.5 °F44 %30.26 in10.0 miCalmClear
7:58 AM39.2 °F17.6 °F42 %30.26 in10.0 miNorth (10°)3.5 mphClear
8:58 AM39.6 °F19.0 °F44 %30.27 in10.0 miCalmClear
9:58 AM46.4 °F17.1 °F31 %30.28 in10.0 miCalmClear
10:58 AM53.6 °F16.9 °F24 %30.25 in10.0 miCalmClear
11:58 AM57.4 °F17.4 °F21 %30.20 in10.0 miENE (70°)12.7 mphPartly Cloudy
12:58 PM60.8 °F17.1 °F18 %30.17 in10.0 miCalmMostly Cloudy
1:58 PM62.4 °F17.2 °F17 %30.15 in10.0 miVariable4.6 mphMostly Cloudy
2:58 PM63.7 °F15.4 °F15 %30.13 in10.0 miENE (60°)11.5 mphMostly Cloudy
3:58 PM63.0 °F16.3 °F16 %30.14 in10.0 miCalmMostly Cloudy
4:58 PM60.3 °F17.6 °F19 %30.15 in10.0 miCalmOvercast
5:58 PM57.9 °F19.0 °F22 %30.15 in10.0 miCalmOvercast
6:58 PM55.6 °F21.4 °F26 %30.14 in10.0 miCalmOvercast
7:58 PM54.0 °F21.6 °F28 %30.14 in10.0 miENE (60°)6.9 mphScattered Clouds
8:58 PM52.0 °F19.6 °F28 %30.16 in10.0 miNE (50°)3.5 mphClear
9:58 PM50.7 °F18.7 °F28 %30.16 in10.0 miEast (80°)2.3 mphPartly Cloudy
10:58 PM49.5 °F18.7 °F30 %30.14 in10.0 miNE (40°)6.9 mphClear
11:58 PM49.8 °F20.1 °F31 %30.14 in10.0 miNorth (10°)8.1 mphClear
Hourly data recorded from KLSV, located miles away from Pahrump, Nevada







STORIES FROM OUR PARTNERS